This demonstration page uses our WeatherBlox Daily Observations layout. Learn more.

Left ArrowRight Arrow

39.08367, -84.50855

Hourly Observations for September 26, 2015

Temp ( °F °C ) Dew Point ( °F °C ) Humidity (%) Winds ( mph kmh ) Pressure ( in mb ) Visibility ( mi km ) Precip ( " mm )
12:53 am 00:53 Cloudy 65 18.3 56 13.3 73 73 E 5 7 30.20 1023 10 16 0.00 0.03
1:53 am 01:53 Mostly Cloudy with Light Rain 64 18 57 14 78 78 NE 6 9 30.15 1021 10 16 0.00 0.00
2:53 am 02:53 Mostly Cloudy with Light Rain 62 16.7 59 15 90 90 ENE 6 9 30.19 1022 10 16 0.00 0.03
3:53 am 03:53 Cloudy 63 17.2 59 15 87 87 NNE 5 7 30.18 1022 10 16 0.00 0.03
4:53 am 04:53 Cloudy 63 17.2 59 15 87 87 NE 6 9 30.18 1022 10 16 0.00 0.00
5:53 am 05:53 Cloudy 62 16.7 60 15.6 93 93 NE 6 9 30.18 1022 10 16 0.00 0.03
6:53 am 06:53 Cloudy 63 17.2 59 15 87 87 NE 5 7 30.19 1022 10 16 0.00 0.00
7:53 am 07:53 Cloudy 63 17.2 59 15 87 87 NE 6 9 30.21 1023 10 16 0.00 0.00
8:53 am 08:53 Cloudy 64 17.8 59 15 84 84 ESE 6 9 30.22 1023 8 13 0.00 0.00
9:29 am 09:29 Cloudy with Light Rain 63 17.2 60 15.6 90 90 ENE 7 11 30.21 1023 3 5 0.00 0.03
9:53 am 09:53 Cloudy 64 17.8 61 16.1 90 90 E 7 11 30.22 1024 10 16 0.00 0.03
10:22 am 10:22 Cloudy 64 18 61 16 88 88 E 8 13 30.21 1023 10 16 0.00 0.00
10:37 am 10:37 Cloudy 65 18.3 60 15.6 84 84 E 8 13 30.21 1023 10 16 0.00 0.03
10:53 am 10:53 Cloudy 66 18.9 60 15.6 81 81 E 7 11 30.23 1024 10 16 0.00 0.03
11:53 am 11:53 Cloudy 67 19.4 60 15.6 79 79 VRB 7 11 30.22 1024 10 16 0.00 0.00
12:35 pm 12:35 Cloudy 68 20 61 16.1 78 78 E 8 13 30.21 1023 10 16 0.00 0.00
12:53 pm 12:53 Cloudy 68 20 61 16.1 78 78 ESE 9 15 30.22 1023 10 16 0.00 0.00
1:27 pm 13:27 Cloudy 69 20.6 61 16.1 76 76 E 9 15 30.18 1022 10 16 0.00 0.00
1:53 pm 13:53 Cloudy 69 20.6 61 16.1 76 76 E 12 19 30.20 1023 10 16 0.00 0.00
2:53 pm 14:53 Cloudy 70 21.1 61 16.1 73 73 ESE 8 13 30.19 1022 10 16 0.00 0.00
3:53 pm 15:53 Cloudy 70 21.1 60 15.6 71 71 VRB 7 11 30.18 1022 10 16 0.00 0.00
4:53 pm 16:53 Cloudy 69 20.6 60 15.6 73 73 E 13 20 30.18 1022 10 16 0.00 0.00
5:53 pm 17:53 Cloudy 69 20.6 60 15.6 73 73 E 8 13 30.19 1022 10 16 0.00 0.03
6:53 pm 18:53 Cloudy 68 20 60 15.6 76 76 ENE 10 17 30.18 1022 10 16 0.00 0.00
7:53 pm 19:53 Cloudy 66 18.9 61 16.1 84 84 ENE 7 11 30.19 1022 10 16 0.00 0.03
8:53 pm 20:53 Cloudy 66 18.9 61 16.1 84 84 ENE 6 9 30.19 1022 10 16 0.00 0.00
9:53 pm 21:53 Cloudy 67 19.4 61 16.1 81 81 E 10 17 30.20 1023 10 16 0.00 0.00
10:53 pm 22:53 Cloudy 67 19.4 61 16.1 81 81 E 8 13 30.20 1023 10 16 0.00 0.00
11:53 pm 23:53 Cloudy 67 19.4 61 16.1 81 81 E 5 7 30.20 1023 10 16 0.00 0.00

Powered by AerisWeather